Regional Weather Roundup
Issued by NWS Jackson, KY

Home | Current Version | Previous Version | Graphics & Text | Print | Product List | Glossary On
Versions: 1 2 3 4 5 6 7 8 9 10 11 12 13 14 15 16 17 18 19 20 21 22 23 24 25 26 27 28 29 30 31 32 33 34 35 36 37 38 39 40 41 42 43 44 45 46 47 48 49 50
000
ASUS43 KJKL 240610
RWRJKL

EAST KENTUCKY HOURLY WEATHER ROUNDUP
NATIONAL WEATHER SERVICE JACKSON KY
200 AM EDT SUN JUL 24 2016

NOTE: "FAIR" INDICATES FEW OR NO CLOUDS BELOW 12,000 FEET WITH
NO SIGNIFICANT WEATHER AND/OR OBSTRUCTIONS TO VISIBILITY.

* THESE REPORTS ARE NOT UNDER NWS QUALITY CONTROL AND MAY NOT
  REPORT WEATHER SUCH AS PRECIPITATION AND FOG.

KYZ079-080-083-085-087-088-110-112-115-119-120-240700
...EASTERN KENTUCKY...

CITY           SKY/WX    TMP DP  RH WIND       PRES   REMARKS
JACKSON        CLEAR     77  71  82 SE3       30.05F
6HR MIN TEMP:  76; 6HR MAX TEMP:  87;

LONDON         CLEAR     75  70  84 CALM      30.05S
6HR MIN TEMP:  75; 6HR MAX TEMP:  88;

SOMERSET*      CLEAR     73  72  94 CALM      30.04F
MONTICELLO*    CLEAR    N/A N/A N/A NW9       30.05F
WILLIAMSBURG*  CLEAR     73  73 100 CALM      30.06S
MIDDLESBORO*   PTCLDY    72  72  99 CALM      30.07S
6HR MIN TEMP:  72; 6HR MAX TEMP:  81;

HARLAN APT*      N/A     72  68  88 CALM      30.08F
PIKE CO APT*     N/A     73  69  88 CALM      30.06F
MOREHEAD APT*  CLEAR     77  73  88 SE3       30.04F
ASHLAND*       CLEAR     75  73  94 CALM      29.99S
$$

KYZ035-036-041-042-044-050-067-078-099-240700
...CENTRAL KENTUCKY...

CITY           SKY/WX    TMP DP  RH WIND       PRES   REMARKS
MT STERLING*   CLEAR     73  73 100 CALM      30.03F
FLEMING/MASON* MOCLDY    78  74  86 S5        30.02F
DANVILLE*      CLEAR     73  73 100 S3        30.03F
RICHMOND*      CLEAR     75  72  88 S3        30.02S
LEXINGTON      CLEAR     78  73  84 CALM      30.01F
6HR MIN TEMP:  77; 6HR MAX TEMP:  90;

FRANKFORT      CLEAR     77  73  87 CALM      29.99F
6HR MIN TEMP:  76; 6HR MAX TEMP:  90;

LOUISVILLE     CLOUDY    84  74  71 CALM      29.97S HX  91
6HR MIN TEMP:  84; 6HR MAX TEMP:  91;

LEBANON*         N/A     77  75  94 S6        30.01F
GLASGOW*       CLEAR     76  75  96 S3        30.00S
BOWLING GREEN  CLEAR     80  75  84 SE6       29.99F
6HR MIN TEMP:  80; 6HR MAX TEMP:  90;

$$

KYZ091>093-OHZ055-061-077-WVZ005-015-034-035-042-240700
...SOUTHERN OHIO/WEST VIRGINIA...

CITY           SKY/WX    TMP DP  RH WIND       PRES   REMARKS
COVINGTON      PTCLDY    78  73  84 CALM      30.00S
COLUMBUS       CLOUDY    77  72  84 CALM      29.99S
DAYTON         MOCLDY    78  72  81 CALM      30.02R
WILMINGTON     PTCLDY    75  74  96 SE3       30.00F
HUNTINGTON       N/A     75  73  93 CALM      30.01S FOG
CHARLESTON       N/A     74  71  91 CALM      30.02F
PINEVILLE*       N/A     72  68  89 MISG      30.13F
BECKLEY          N/A     70  67  90 SE3       30.12F
BLUEFIELD        N/A     71  66  84 CALM      30.16S
LOGAN CO APT*    N/A     75  72  88 CALM      30.06F
$$

VAZ002-007-008-TNZ017-027-036-066-071-240700
...SOUTHWEST VIRGINIA/EAST TENNESSEE...

CITY           SKY/WX    TMP DP  RH WIND       PRES   REMARKS
WISE*            N/A     70  64  83 S3        30.15F
JONESVILLE*      N/A     73  70  88 CALM      30.09F
ABINGDON*        N/A     73  69  88 CALM      30.12F
BRISTOL        PTCLDY    73  69  87 CALM      30.09S
MORRISTOWN*    PTCLDY    72  70  94 CALM      30.06S
SEVIERVILLE*   CLEAR     70  66  88 S3        30.05F
KNOXVILLE      PTCLDY    73  70  90 CALM      30.04F
OAK RIDGE      CLEAR     75  71  87 CALM      30.05F
CROSSVILLE     CLEAR     69  68  96 CALM      30.09S
NASHVILLE      PTCLDY    76  70  82 S5        30.00F
$$

...KEY TO REMARKS...
VSB - VISIBILITY IN MILES
WCI - WIND CHILL INDEX
HX  - HEAT INDEX

$$



USA.gov is the U.S. government's official web portal to all federal, state and local government web resources and services.